Florala, AL

7:13 PM CST on December 14, 2017 (GMT -0600)
Florala

Weather History for K0J4 - December, 2013

Change the Weather History Date:

Tuesday, December 3, 2013

  Actual Average (KCEW) Record (KCEW)
Temperature  
Mean Temperature 68 °F -  
Max Temperature 78 °F 67 °F 82 °F (1978)
Min Temperature 57 °F 42 °F 26 °F (1976)
Cooling Degree Days 2    
Growing Degree Days 18 (Base 50)    
Moisture  
Dew Point 60 °F    
Average Humidity 82    
Maximum Humidity 94    
Minimum Humidity 52    
Precipitation  
Precipitation 0.04 in - - ()
Sea Level Pressure  
Sea Level Pressure 29.86 in    
Wind  
Wind Speed 4 mph (SSW)    
Max Wind Speed 16 mph    
Max Gust Speed 24 mph    
Visibility 9 miles    
Events Rain    
Averages and records for this station are not official NWS values.
T = Trace of Precipitation, MM = Missing Value Source: NWS Daily Summary

Daily Weather History Graph

Daily Weather History Graph

Search for Another Location

Airport or City:

Trip Planner

Search our weather history database for the weather conditions in past years. The results will help you decide how hot, cold, wet, or windy it might be!

Date:

Astronomy

Dec. 03, 2013 Rise Set
Actual Time 6:27 AM CST 4:42 PM CST
Civil Twilight 6:01 AM CST 5:09 PM CST
Nautical Twilight 5:31 AM CST 5:39 PM CST
Astronomical Twilight 5:01 AM CST 6:08 PM CST
Moon 6:57 AM CST (12/3) 5:44 PM CST (12/3)
Length of Visible Light 11h 07m
Length of Day
10h 15m
New Moon, 1% of the Moon is Illuminated
Dec 3
New Moon
Dec 9
First Quarter
Dec 17
Full
Dec 25
Last Quarter
Jan 1
New

Hourly Weather History & Observations

Time (CST) Temp. Dew Point Humidity Pressure Visibility Wind Dir Wind Speed Gust Speed Precip Events Conditions
12:58 AM 57.0 °F 54.0 °F 89% 29.85 in 10.0 mi Calm Calm - N/A   Mostly Cloudy
1:58 AM 57.0 °F 54.0 °F 89% 29.84 in 10.0 mi South 3.5 mph - N/A   Partly Cloudy
2:58 AM 57.0 °F 54.0 °F 89% 29.84 in 10.0 mi South 3.5 mph - N/A   Clear
3:58 AM 57.9 °F 55.0 °F 90% 29.83 in 10.0 mi SSW 5.8 mph - N/A   Partly Cloudy
4:58 AM 57.9 °F 55.9 °F 93% 29.83 in 10.0 mi SSW 5.8 mph - N/A   Clear
5:58 AM 60.1 °F 57.9 °F 93% 29.84 in 10.0 mi SSW 4.6 mph - N/A   Overcast
6:58 AM 61.0 °F 57.9 °F 90% 29.86 in 6.0 mi Calm Calm - 0.00 in Rain Light Rain
7:06 AM 60.8 °F 59.0 °F 94% 29.87 in 2.0 mi Calm Calm - 0.03 in Rain Rain
7:15 AM 60.8 °F 59.0 °F 94% 29.87 in 3.0 mi North 3.5 mph - 0.04 in Rain Light Rain
7:50 AM 60.8 °F 59.0 °F 94% 29.88 in 7.0 mi Calm Calm - 0.04 in   Overcast
7:58 AM 61.0 °F 59.0 °F 93% 29.87 in 7.0 mi Calm Calm - 0.04 in Rain Light Rain
8:21 AM 64.4 °F 60.8 °F 88% 29.88 in 10.0 mi North 3.5 mph - 0.00 in Rain Light Rain
8:29 AM 62.6 °F 60.8 °F 94% 29.89 in 9.0 mi Calm Calm - 0.00 in Rain Light Rain
8:58 AM 64.0 °F 61.0 °F 90% 29.89 in 10.0 mi Calm Calm - 0.00 in Rain Light Rain
9:13 AM 64.4 °F 62.6 °F 94% 29.90 in 10.0 mi Variable 3.5 mph - 0.00 in   Overcast
9:17 AM 66.2 °F 62.6 °F 88% 29.90 in 10.0 mi ESE 3.5 mph - 0.00 in   Mostly Cloudy
9:36 AM 66.2 °F 62.6 °F 88% 29.90 in 10.0 mi Calm Calm - 0.00 in   Scattered Clouds
9:58 AM 70.0 °F 64.0 °F 81% 29.89 in 10.0 mi SSE 5.8 mph - 0.00 in   Mostly Cloudy
10:15 AM 71.6 °F 64.4 °F 78% 29.89 in 10.0 mi SSE 9.2 mph - N/A   Mostly Cloudy
10:23 AM 73.4 °F 62.6 °F 69% 29.89 in 10.0 mi SSW 9.2 mph - N/A   Overcast
10:58 AM 73.0 °F 63.0 °F 71% 29.87 in 10.0 mi SSW 10.4 mph - N/A   Mostly Cloudy
11:11 AM 73.4 °F 62.6 °F 69% 29.87 in 10.0 mi SW 5.8 mph - N/A   Mostly Cloudy
11:20 AM 73.4 °F 62.6 °F 69% 29.86 in 10.0 mi South 10.4 mph - N/A   Mostly Cloudy
11:58 AM 77.0 °F 60.1 °F 56% 29.84 in 10.0 mi SSW 13.8 mph 24.2 mph N/A   Overcast
12:58 PM 78.1 °F 59.0 °F 52% 29.81 in 10.0 mi SSW 16.1 mph - N/A   Partly Cloudy
1:58 PM 77.0 °F 60.1 °F 56% 29.81 in 10.0 mi South 11.5 mph - N/A   Partly Cloudy
2:58 PM 75.0 °F 60.1 °F 60% 29.82 in 10.0 mi SSW 13.8 mph 19.6 mph N/A   Partly Cloudy
3:58 PM 73.0 °F 60.1 °F 64% 29.81 in 10.0 mi SSW 9.2 mph - N/A   Mostly Cloudy
4:58 PM 71.1 °F 60.1 °F 68% 29.83 in 10.0 mi South 6.9 mph - N/A   Overcast
5:58 PM 66.9 °F 60.1 °F 79% 29.86 in 10.0 mi SSW 4.6 mph - N/A   Mostly Cloudy
7:58 PM 66.0 °F 62.1 °F 87% 29.87 in 10.0 mi South 5.8 mph - N/A   Clear
8:58 PM 64.9 °F 62.1 °F 90% 29.88 in 10.0 mi South 4.6 mph - N/A   Clear
9:58 PM 64.0 °F 62.1 °F 93% 29.89 in 10.0 mi South 3.5 mph - N/A   Clear
10:58 PM 64.9 °F 63.0 °F 93% 29.89 in 10.0 mi South 8.1 mph - N/A   Scattered Clouds
11:58 PM 64.9 °F 63.0 °F 93% 29.90 in 10.0 mi South 4.6 mph - N/A   Clear